EZS1000 LFSB-LFKJ

Flight info

Callsign EZS1000
Flight time 1h 8m
Altitude 37000
Route ELBEG Y715 AMRUP N491 TRA DCT RIPUS DCT GERSA DCT SOSON DCT ODINA DCT EVANO DCT KEMMI DCT IXITO DCT UNITA DCT ERTEV/N0408F230 DCT TORTU
Aircraft A20N/M-SDE2E3FGHIRWXY/LB1

Departure

Time 2026-04-08 14:09
Airport EuroAirport Basel–Mulhouse–Freiburg (LFSB)

Arrival

Time 2026-04-08 15:18
Airport Ajaccio Napoléon Bonaparte airport (LFKJ)
Time Latitude Longitude Altitude Speed Heading
2026-04-08 13:35 47.59738 7.53203 889 ft 0 kts 66°
2026-04-08 13:36 47.59705 7.53225 889 ft 0 kts 66°
2026-04-08 13:37 47.59695 7.53231 889 ft 0 kts 66°
2026-04-08 13:57 47.59691 7.53219 889 ft 2 kts 67°
2026-04-08 13:58 47.59686 7.53196 889 ft 3 kts 74°
2026-04-08 13:58 47.59684 7.53176 889 ft 2 kts 97°
2026-04-08 13:58 47.59687 7.53161 889 ft 2 kts 131°
2026-04-08 13:58 47.59696 7.53150 889 ft 2 kts 148°
2026-04-08 13:59 47.59706 7.53142 889 ft 2 kts 154°
2026-04-08 13:59 47.59715 7.53136 889 ft 2 kts 156°
2026-04-08 13:59 47.59719 7.53133 889 ft 0 kts 156°
2026-04-08 14:00 47.59718 7.53134 889 ft 1 kts 156°
2026-04-08 14:00 47.59691 7.53128 889 ft 7 kts 210°
2026-04-08 14:00 47.59654 7.53028 889 ft 15 kts 247°
2026-04-08 14:01 47.59604 7.52872 890 ft 18 kts 243°
2026-04-08 14:01 47.59640 7.52758 890 ft 16 kts 335°
2026-04-08 14:01 47.59772 7.52669 890 ft 23 kts 335°
2026-04-08 14:01 47.59916 7.52568 890 ft 23 kts 335°
2026-04-08 14:02 47.60057 7.52472 890 ft 22 kts 335°
2026-04-08 14:02 47.60195 7.52376 890 ft 21 kts 335°
2026-04-08 14:02 47.60461 7.52191 890 ft 21 kts 335°
2026-04-08 14:03 47.60590 7.52100 889 ft 20 kts 335°
2026-04-08 14:03 47.60721 7.52011 889 ft 24 kts 335°
2026-04-08 14:03 47.60900 7.51887 889 ft 31 kts 332°
2026-04-08 14:03 47.61048 7.51780 890 ft 22 kts 329°
2026-04-08 14:04 47.61071 7.51650 890 ft 6 kts 247°
2026-04-08 14:04 47.61070 7.51645 890 ft 0 kts 247°
2026-04-08 14:05 47.61044 7.51562 889 ft 18 kts 245°
2026-04-08 14:06 47.60980 7.51539 891 ft 5 kts 151°
2026-04-08 14:06 47.60977 7.51540 891 ft 0 kts 154°
2026-04-08 14:08 47.60968 7.51547 891 ft 12 kts 154°
2026-04-08 14:08 47.60683 7.51743 891 ft 77 kts 155°
2026-04-08 14:09 47.60023 7.52203 897 ft 132 kts 155°
2026-04-08 14:09 47.59050 7.52870 958 ft 166 kts 152°
2026-04-08 14:09 47.58082 7.53495 1643 ft 148 kts 154°
2026-04-08 14:09 47.57123 7.54053 2013 ft 152 kts 156°
2026-04-08 14:10 47.56103 7.54607 2360 ft 159 kts 161°
2026-04-08 14:10 47.54968 7.54539 2646 ft 182 kts 209°
2026-04-08 14:10 47.54157 7.53023 2877 ft 206 kts 256°
2026-04-08 14:10 47.54316 7.50904 3148 ft 218 kts 300°
2026-04-08 14:11 47.55459 7.49442 3466 ft 228 kts 344°
2026-04-08 14:11 47.57054 7.49072 4038 ft 237 kts 354°
2026-04-08 14:11 47.58690 7.48690 4882 ft 239 kts 351°
2026-04-08 14:11 47.60325 7.48230 5741 ft 239 kts 349°
2026-04-08 14:12 47.61947 7.47694 6642 ft 239 kts 347°
2026-04-08 14:12 47.63584 7.47309 7451 ft 238 kts
2026-04-08 14:12 47.65186 7.47901 8198 ft 241 kts 31°
2026-04-08 14:12 47.66389 7.49694 8711 ft 258 kts 55°
2026-04-08 14:13 47.67303 7.52083 9166 ft 275 kts 68°
2026-04-08 14:13 47.67561 7.54894 9866 ft 286 kts 96°
2026-04-08 14:13 47.66803 7.57644 10516 ft 298 kts 123°
2026-04-08 14:13 47.65345 7.59981 10857 ft 321 kts 139°
2026-04-08 14:14 47.63476 7.61985 11146 ft 342 kts 147°
2026-04-08 14:14 47.59131 7.65746 11823 ft 378 kts 149°
2026-04-08 14:14 47.56837 7.67732 12408 ft 385 kts 148°
2026-04-08 14:15 47.54537 7.69808 13100 ft 389 kts 147°
2026-04-08 14:15 47.52230 7.71969 13731 ft 396 kts 146°
2026-04-08 14:15 47.49908 7.74198 14331 ft 400 kts 146°
2026-04-08 14:15 47.47606 7.76434 15028 ft 401 kts 146°
2026-04-08 14:16 47.45268 7.78718 15609 ft 407 kts 146°
2026-04-08 14:16 47.42893 7.81037 16226 ft 410 kts 146°
2026-04-08 14:16 47.40498 7.83371 16847 ft 415 kts 146°
2026-04-08 14:16 47.38073 7.85729 17463 ft 420 kts 146°
2026-04-08 14:17 47.35628 7.88100 18106 ft 423 kts 146°
2026-04-08 14:17 47.33156 7.90492 18712 ft 427 kts 146°
2026-04-08 14:17 47.30665 7.92898 19235 ft 431 kts 146°
2026-04-08 14:17 47.28145 7.95328 19760 ft 434 kts 146°
2026-04-08 14:18 47.25609 7.97772 20282 ft 438 kts 146°
2026-04-08 14:18 47.23081 8.00205 20782 ft 442 kts 146°
2026-04-08 14:18 47.20502 8.02685 21283 ft 445 kts 146°
2026-04-08 14:18 47.17901 8.05183 21762 ft 449 kts 146°
2026-04-08 14:19 47.15277 8.07701 22274 ft 452 kts 146°
2026-04-08 14:19 47.12626 8.10240 22780 ft 456 kts 146°
2026-04-08 14:19 47.09961 8.12790 23283 ft 459 kts 146°
2026-04-08 14:19 47.07279 8.15353 23756 ft 463 kts 146°
2026-04-08 14:20 47.04565 8.17943 24174 ft 466 kts 146°
2026-04-08 14:20 47.01835 8.20545 24612 ft 469 kts 147°
2026-04-08 14:20 46.99089 8.23160 25033 ft 472 kts 147°
2026-04-08 14:20 46.96327 8.25787 25428 ft 475 kts 147°
2026-04-08 14:21 46.93546 8.28427 25824 ft 478 kts 147°
2026-04-08 14:21 46.90753 8.31077 26173 ft 481 kts 147°
2026-04-08 14:21 46.87934 8.33748 26572 ft 484 kts 147°
2026-04-08 14:21 46.85144 8.36387 26935 ft 486 kts 147°
2026-04-08 14:22 46.82260 8.39113 27321 ft 487 kts 147°
2026-04-08 14:22 46.79416 8.41797 27813 ft 487 kts 147°
2026-04-08 14:22 46.76575 8.44475 28349 ft 485 kts 147°
2026-04-08 14:22 46.73749 8.47138 28909 ft 483 kts 148°
2026-04-08 14:23 46.70924 8.49795 29371 ft 483 kts 148°
2026-04-08 14:23 46.68100 8.52446 29844 ft 483 kts 148°
2026-04-08 14:23 46.65285 8.55083 30341 ft 481 kts 148°
2026-04-08 14:23 46.62359 8.57432 30692 ft 479 kts 157°
2026-04-08 14:24 46.59243 8.59105 31053 ft 477 kts 166°
2026-04-08 14:24 46.56002 8.60046 31384 ft 476 kts 173°
2026-04-08 14:24 46.52713 8.60683 31735 ft 475 kts 175°
2026-04-08 14:24 46.49434 8.61179 32111 ft 473 kts 176°
2026-04-08 14:25 46.46163 8.61610 32420 ft 472 kts 177°
2026-04-08 14:25 46.42883 8.62024 32726 ft 472 kts 177°
2026-04-08 14:25 46.39612 8.62443 33043 ft 472 kts 177°
2026-04-08 14:25 46.36346 8.62874 33297 ft 471 kts 176°
2026-04-08 14:26 46.33083 8.63319 33606 ft 471 kts 176°
2026-04-08 14:26 46.29868 8.63765 33953 ft 470 kts 176°
2026-04-08 14:26 46.26618 8.64220 34244 ft 469 kts 176°
2026-04-08 14:26 46.23362 8.64677 34454 ft 470 kts 176°
2026-04-08 14:27 46.20116 8.65133 34742 ft 468 kts 176°
2026-04-08 14:27 46.16880 8.65586 34939 ft 467 kts 176°
2026-04-08 14:27 46.13648 8.66045 35123 ft 467 kts 176°
2026-04-08 14:27 46.10404 8.66499 35317 ft 468 kts 176°
2026-04-08 14:28 46.07161 8.66927 35530 ft 467 kts 177°
2026-04-08 14:28 46.03929 8.67338 35865 ft 465 kts 177°
2026-04-08 14:28 46.00706 8.67741 36086 ft 465 kts 177°
2026-04-08 14:28 45.97488 8.68140 36344 ft 463 kts 177°
2026-04-08 14:29 45.94279 8.68540 36560 ft 463 kts 177°
2026-04-08 14:29 45.91068 8.68940 36763 ft 463 kts 177°
2026-04-08 14:29 45.87903 8.69336 36950 ft 463 kts 177°
2026-04-08 14:29 45.84700 8.69738 37120 ft 464 kts 177°
2026-04-08 14:30 45.81475 8.70142 37148 ft 466 kts 177°
2026-04-08 14:30 45.75016 8.70952 37142 ft 465 kts 177°
2026-04-08 14:31 45.68586 8.71757 37129 ft 464 kts 177°
2026-04-08 14:31 45.62203 8.72553 37127 ft 464 kts 177°
2026-04-08 14:32 45.55775 8.73353 37130 ft 463 kts 177°
2026-04-08 14:32 45.49357 8.74150 37130 ft 463 kts 177°
2026-04-08 14:33 45.42935 8.74945 37123 ft 463 kts 177°
2026-04-08 14:33 45.36520 8.75738 37129 ft 462 kts 177°
2026-04-08 14:34 45.30149 8.76455 37129 ft 462 kts 178°
2026-04-08 14:34 45.23734 8.77040 37140 ft 462 kts 178°
2026-04-08 14:35 45.17331 8.77603 37154 ft 461 kts 178°
2026-04-08 14:35 45.10931 8.78178 37158 ft 461 kts 178°
2026-04-08 14:36 45.04534 8.78760 37152 ft 461 kts 178°
2026-04-08 14:36 44.98147 8.79344 37121 ft 460 kts 178°
2026-04-08 14:37 44.91756 8.79926 37136 ft 460 kts 178°
2026-04-08 14:37 44.85340 8.80508 37132 ft 466 kts 178°
2026-04-08 14:38 44.78852 8.81093 37139 ft 473 kts 178°
2026-04-08 14:38 44.72262 8.81312 37154 ft 471 kts 182°
2026-04-08 14:39 44.67009 8.81201 37161 ft 470 kts 183°
2026-04-08 14:39 44.60471 8.81027 37170 ft 469 kts 183°
2026-04-08 14:40 44.53941 8.80900 37184 ft 470 kts 182°
2026-04-08 14:40 44.47449 8.80807 37184 ft 469 kts 182°
2026-04-08 14:41 44.40923 8.80723 37181 ft 469 kts 182°
2026-04-08 14:41 44.34405 8.80638 37184 ft 469 kts 182°
2026-04-08 14:42 44.27865 8.80551 37176 ft 469 kts 182°
2026-04-08 14:42 44.21342 8.80464 37181 ft 468 kts 182°
2026-04-08 14:43 44.14918 8.81523 37181 ft 471 kts 165°
2026-04-08 14:43 44.11862 8.83153 37180 ft 472 kts 154°
2026-04-08 14:43 44.09070 8.85545 37186 ft 473 kts 144°
2026-04-08 14:44 44.03903 8.91239 37182 ft 474 kts 140°
2026-04-08 14:44 43.98747 8.96925 37180 ft 473 kts 149°
2026-04-08 14:45 43.92732 9.00440 37181 ft 469 kts 169°
2026-04-08 14:45 43.89552 9.01003 37175 ft 467 kts 180°
2026-04-08 14:45 43.86317 9.00784 37182 ft 465 kts 187°
2026-04-08 14:46 43.79918 8.99535 37179 ft 464 kts 191°
2026-04-08 14:46 43.73548 8.98035 37179 ft 464 kts 191°
2026-04-08 14:47 43.67169 8.96570 37177 ft 464 kts 191°
2026-04-08 14:47 43.60773 8.95888 37180 ft 465 kts 182°
2026-04-08 14:48 43.54296 8.95839 37181 ft 465 kts 181°
2026-04-08 14:48 43.47819 8.95834 37179 ft 466 kts 181°
2026-04-08 14:49 43.41342 8.95828 37181 ft 465 kts 182°
2026-04-08 14:49 43.38135 8.95376 37183 ft 462 kts 194°
2026-04-08 14:49 43.35083 8.94216 37183 ft 461 kts 199°
2026-04-08 14:50 43.28981 8.91485 37139 ft 461 kts 199°
2026-04-08 14:50 43.25946 8.90118 36686 ft 458 kts 199°
2026-04-08 14:50 43.22911 8.88759 36058 ft 459 kts 199°
2026-04-08 14:50 43.19872 8.87404 35422 ft 460 kts 199°
2026-04-08 14:51 43.16825 8.86049 34764 ft 461 kts 199°
2026-04-08 14:51 43.13769 8.84694 34092 ft 463 kts 198°
2026-04-08 14:51 43.10693 8.83331 33318 ft 465 kts 198°
2026-04-08 14:51 43.07606 8.81966 32530 ft 467 kts 198°
2026-04-08 14:52 43.04502 8.80595 31767 ft 470 kts 198°
2026-04-08 14:52 43.01430 8.79240 31011 ft 472 kts 198°
2026-04-08 14:52 42.98293 8.77858 30243 ft 474 kts 198°
2026-04-08 14:52 42.95149 8.76474 29332 ft 476 kts 198°
2026-04-08 14:53 42.91986 8.75084 28408 ft 479 kts 198°
2026-04-08 14:53 42.88810 8.73688 27458 ft 482 kts 197°
2026-04-08 14:53 42.85619 8.72289 26394 ft 482 kts 197°
2026-04-08 14:53 42.82417 8.70886 25125 ft 483 kts 197°
2026-04-08 14:54 42.79250 8.69499 24580 ft 468 kts 197°
2026-04-08 14:54 42.76155 8.68145 24355 ft 468 kts 197°
2026-04-08 14:54 42.73066 8.66795 23922 ft 465 kts 197°
2026-04-08 14:54 42.70034 8.65472 23411 ft 463 kts 197°
2026-04-08 14:55 42.66980 8.64141 22868 ft 460 kts 197°
2026-04-08 14:55 42.63946 8.62820 22337 ft 456 kts 197°
2026-04-08 14:55 42.60938 8.61511 21813 ft 453 kts 197°
2026-04-08 14:55 42.57949 8.60213 21121 ft 448 kts 197°
2026-04-08 14:56 42.54993 8.58929 20373 ft 444 kts 197°
2026-04-08 14:56 42.52067 8.57660 19641 ft 439 kts 197°
2026-04-08 14:56 42.49177 8.56408 18927 ft 432 kts 197°
2026-04-08 14:56 42.46346 8.55182 18193 ft 422 kts 198°
2026-04-08 14:57 42.43583 8.53987 17408 ft 412 kts 198°
2026-04-08 14:57 42.40913 8.52834 16652 ft 404 kts 198°
2026-04-08 14:57 42.38266 8.51691 15900 ft 395 kts 198°
2026-04-08 14:57 42.35668 8.50570 15167 ft 388 kts 198°
2026-04-08 14:58 42.33123 8.49473 14452 ft 381 kts 198°
2026-04-08 14:58 42.30621 8.48396 13752 ft 373 kts 198°
2026-04-08 14:58 42.28194 8.47353 13314 ft 358 kts 198°
2026-04-08 14:58 42.25876 8.46356 13207 ft 344 kts 198°
2026-04-08 14:59 42.23592 8.45378 13196 ft 345 kts 198°
2026-04-08 14:59 42.21258 8.44630 13176 ft 346 kts 189°
2026-04-08 14:59 42.18858 8.44304 12836 ft 346 kts 184°
2026-04-08 14:59 42.16453 8.44115 12414 ft 344 kts 184°
2026-04-08 15:00 42.14107 8.43952 12040 ft 342 kts 183°
2026-04-08 15:00 42.11740 8.43785 11653 ft 340 kts 184°
2026-04-08 15:00 42.09380 8.43614 11293 ft 338 kts 184°
2026-04-08 15:00 42.07032 8.43441 10945 ft 337 kts 184°
2026-04-08 15:01 42.04702 8.43268 10699 ft 335 kts 184°
2026-04-08 15:01 42.02375 8.43094 10458 ft 334 kts 184°
2026-04-08 15:01 42.00058 8.42919 10221 ft 333 kts 184°
2026-04-08 15:01 41.97754 8.42746 9976 ft 332 kts 184°
2026-04-08 15:02 41.95447 8.42573 9714 ft 331 kts 184°
2026-04-08 15:02 41.93152 8.42400 9454 ft 329 kts 184°
2026-04-08 15:02 41.90901 8.42231 9201 ft 328 kts 184°
2026-04-08 15:02 41.88627 8.42060 8942 ft 327 kts 184°
2026-04-08 15:03 41.86363 8.41890 8689 ft 325 kts 184°
2026-04-08 15:03 41.84143 8.41724 8441 ft 314 kts 184°
2026-04-08 15:03 41.81995 8.41564 8193 ft 305 kts 184°
2026-04-08 15:03 41.79908 8.41408 7949 ft 296 kts 184°
2026-04-08 15:04 41.77884 8.41256 7706 ft 288 kts 184°
2026-04-08 15:04 41.75902 8.41108 7465 ft 283 kts 184°
2026-04-08 15:04 41.73935 8.40960 7221 ft 283 kts 184°
2026-04-08 15:04 41.71973 8.40813 6980 ft 282 kts 184°
2026-04-08 15:05 41.70042 8.40669 6747 ft 281 kts 184°
2026-04-08 15:05 41.68094 8.40533 6504 ft 280 kts 182°
2026-04-08 15:05 41.66164 8.40829 6247 ft 280 kts 162°
2026-04-08 15:05 41.64499 8.42111 5990 ft 277 kts 136°
2026-04-08 15:06 41.63352 8.44151 5746 ft 275 kts 121°
2026-04-08 15:06 41.62540 8.46470 5492 ft 277 kts 104°
2026-04-08 15:06 41.62466 8.49009 5259 ft 276 kts 76°
2026-04-08 15:06 41.63293 8.51410 5197 ft 297 kts 57°
2026-04-08 15:07 41.64480 8.53734 5109 ft 307 kts 54°
2026-04-08 15:07 41.65769 8.56008 4860 ft 307 kts 45°
2026-04-08 15:07 41.67550 8.57479 4640 ft 301 kts 14°
2026-04-08 15:07 41.69615 8.57670 4475 ft 298 kts 356°
2026-04-08 15:08 41.71656 8.57439 4301 ft 299 kts 354°
2026-04-08 15:08 41.73730 8.57193 4128 ft 299 kts 354°
2026-04-08 15:08 41.75800 8.56989 3947 ft 298 kts 355°
2026-04-08 15:08 41.77868 8.56819 3774 ft 297 kts 356°
2026-04-08 15:09 41.79928 8.56671 3603 ft 296 kts 356°
2026-04-08 15:09 41.81988 8.56535 3430 ft 296 kts 356°
2026-04-08 15:09 41.84038 8.56406 3253 ft 295 kts 356°
2026-04-08 15:09 41.86064 8.56281 3081 ft 294 kts 356°
2026-04-08 15:10 41.88095 8.56159 3001 ft 287 kts 356°
2026-04-08 15:10 41.90022 8.56045 2997 ft 268 kts 356°
2026-04-08 15:10 41.91822 8.55939 2999 ft 251 kts 356°
2026-04-08 15:10 41.93509 8.55839 2996 ft 234 kts 356°
2026-04-08 15:11 41.95075 8.55747 3025 ft 216 kts 356°
2026-04-08 15:11 41.96534 8.55705 3008 ft 206 kts
2026-04-08 15:11 41.97846 8.56226 2996 ft 194 kts 31°
2026-04-08 15:11 41.98743 8.57514 3000 ft 193 kts 61°
2026-04-08 15:12 41.99259 8.59183 2998 ft 194 kts 70°
2026-04-08 15:12 41.99677 8.60916 2996 ft 195 kts 72°
2026-04-08 15:12 42.00071 8.62597 2999 ft 180 kts 72°
2026-04-08 15:12 42.00433 8.64128 3004 ft 171 kts 71°
2026-04-08 15:13 42.00737 8.65686 2997 ft 173 kts 83°
2026-04-08 15:13 42.00696 8.67298 2952 ft 171 kts 98°
2026-04-08 15:13 42.00511 8.68843 2738 ft 164 kts 100°
2026-04-08 15:13 42.00308 8.70346 2518 ft 162 kts 100°
2026-04-08 15:14 42.00105 8.71837 2314 ft 162 kts 101°
2026-04-08 15:14 41.99907 8.73313 2115 ft 162 kts 101°
2026-04-08 15:14 41.99711 8.74794 1890 ft 160 kts 102°
2026-04-08 15:14 41.99521 8.76252 1727 ft 158 kts 102°
2026-04-08 15:15 41.99327 8.77708 1647 ft 158 kts 103°
2026-04-08 15:15 41.99134 8.79168 1507 ft 159 kts 103°
2026-04-08 15:15 41.98903 8.80620 1451 ft 159 kts 112°
2026-04-08 15:15 41.98368 8.81880 1393 ft 154 kts 138°
2026-04-08 15:16 41.97481 8.82608 1149 ft 149 kts 172°
2026-04-08 15:16 41.96467 8.82541 901 ft 149 kts 194°
2026-04-08 15:16 41.95482 8.82116 632 ft 148 kts 201°
2026-04-08 15:16 41.94524 8.81572 410 ft 151 kts 205°
2026-04-08 15:17 41.93594 8.80997 211 ft 143 kts 205°
2026-04-08 15:17 41.92715 8.80447 35 ft 136 kts 206°
2026-04-08 15:17 41.91942 8.79963 25 ft 104 kts 205°
2026-04-08 15:17 41.91496 8.79686 22 ft 50 kts 206°
2026-04-08 15:18 41.91308 8.79387 24 ft 19 kts 334°
2026-04-08 15:18 41.91434 8.79328 23 ft 19 kts
2026-04-08 15:18 41.91558 8.79391 26 ft 22 kts 25°
2026-04-08 15:19 41.91695 8.79477 25 ft 22 kts 25°
2026-04-08 15:19 41.91807 8.79533 24 ft 13 kts 352°
2026-04-08 15:19 41.91856 8.79502 25 ft 6 kts 348°
2026-04-08 15:19 41.91869 8.79497 25 ft 0 kts 345°